Voltar ao catálogo

DELTA 1 DEB

AtivoSSO
NORAD 21333·DEBRIS·🇺🇸 United States

Lançado Jun 12, 1975 de Vandenberg Space Force Base

Loading…

Próximas Passagens (próximas 24 horas)

TLE

AtualizadoSource: Space-Track

Época: Sep 14, 2026, 05:27 UTC

1 21333U 75052BB  26257.22717681  .00000009  00000-0  89246-4 0  9999
2 21333  99.8136  50.3077 0002879 268.7230 267.3668 13.45499405736127

Acompanhe DELTA 1 DEB em tempo real com AllMySat

Download on the App Store